Weather in Ashdod

Israel     31°48′26″N   34°39′31″E
temp.,
°C
wind,
m/s
gust,
m/s
humid.,
%
clouds,
%
prec.,
mm/h
press.,
hPa
HPBL,
m
6 may, thu
thu600:00+21wsw22534 0.0 101211
03:00+19wsw22735 0.0 101213
06:00+18s22795 0.0 101311
09:00+24wsw224515 0.0 1015507
12:00+29w552562 0.0 1014937
15:00+29wnw55245 0.0 1013668
18:00+25nw57405 0.0 1013400
21:00+21ne116012 0.0 101411
7 may, fri
fri700:00+21se33392 0.0 101431
03:00+20ssw33425 0.0 101420
06:00+19s23490 0.0 101317
09:00+25sw333777 0.0 1014586
12:00+28w55321 0.0 1013970
15:00+27nw66415 0.0 1013738
18:00+24nw45510 0.0 1013475
21:00+20n12736 0.0 101411
8 may, sat
sat800:00+19se11690 0.0 101411
03:00+18s01690 0.0 101311
06:00+17se11700 0.0 101411
09:00+25ese12410 0.0 1014348
12:00+31nw22214 0.0 1013960
15:00+31nnw64275 0.0 1012647
18:00+28n55385 0.0 1011323
21:00+23n34535 0.0 101241
9 may, sun
sun900:00+24ese12444 0.0 101111
03:00+25sse113514 0.0 100911
06:00+26sse342399 0.0 100924
09:00+35sse351465 0.0 1009441
12:00+39w5511100 0.0 10091408
15:00+36nw5614100 0.0 1008466
18:00+29wnw4630100 0.0 1009121
21:00+29e332599 0.0 100834
10 may, mon
mon1000:00+25sse3344100 0.0 100941
03:00+25nnw3347100 0.0 100846
06:00+22nne116364 0.0 100811
09:00+29w433671 0.0 1009293
12:00+32wnw4335100 0.0 1009621
15:00+27nw76554 0.0 1008324
18:00+26nw325230 0.0 1007320
21:00+22sw226957 0.0 100849